SNUSAT-1B (42727 NORAD) Tracking and Keplerian Element Data

This shows tracking and keplerian element data for the satellite.

Feedback or suggestion? Click here.




ElementValue
Catalog42727
NameSNUSAT-1B
Epoch Orbit10391
Epoch Day77.85803146
Epoch Year2019
RAAN14.6845
Inclination51.6217
Eccentricity0.0006368
Argument of Perigee165.7716
Mean Anonmoly194.3478
Mean Motion16.07112605
Decay Rate0.00485962
L11 42727U 98067MG 19077.85803146 .00485962 12520-3 60440-3 0 9995
L22 42727 51.6217 14.6845 0006368 165.7716 194.3478 16.07112605103919

Live tracking and technical data element details for SNUSAT-1B (NORAD 42727). SNUSAT-1B can be tracked NOW for your location showing map with azimuth and elevation plus other details from your city location.

Track the satellite on the map from your city or location and see movement details for azimuth, elevation, latitude, longitude, range, height, and movement on the map or in text.







IsCatalogInMostPopularTable: catalog: 42727, numindb: 209
Update: records affected: 1



GetName: 42727 SNUSAT-1B

Hit Count: updated at: Wed, 20 Mar 2019 05:19:37 GMT